FENGYUN 1C DEB, 35089

Orbit data source: Space-Track

FENGYUN 1C DEB, 35089 is space debris in SSO originally from a launch on Mon, 10 May 1999 UTC launched from the Taiyaun Space Center, China (TSC). Fengyun 1C debris stems from the Chinese weather satellite Fengyun-1C, which was intentionally destroyed by a Chinese anti-satellite missile in 2007. This event dramatically increased the amount of space debris, with thousands of trackable fragments posing hazards to satellites and human spaceflight. The Fengyun 1C debris cloud has become a focal point in discussions about space sustainability and the need for international regulations to prevent the creation of new debris.

Loading next visibility...
Identifier
35089, 1999-025DJR
Orbit
SSO
Country
Flag of CNCN / PRC
Related business
Manufacturer
Unknown
Mission
Spacecraft
Bus & Motor
Unknown
Mass
Unknown
Launch date (UTC)
1999-05-10 (27 years ago)
Launch vehicle
Unknown
Launch site
Taiyaun Space Center, China (TSC)
Object type
Payload
Rocket body
Debris
Shape & HBR
Unknown shape, 0.1 m
Radar Cross Section
Medium (>0.1 m² and <1 m²)

Expand to show TLE details & history
Last TLE update: 2 days ago

TLE from 2 days ago
0 FENGYUN 1C DEB
1 35089U 99025DJR 26169.75017172  .00001110  00000-0  54073-3 0  9999
2 35089  98.5544 178.3470 0025906 235.9837 123.8879 14.19951679635432
Epoch: 2026-06-18T18:00Z
TLE epoch observation values (Epoch: 2026-06-18T18:00:14.836Z)
Latitude
-0.00004°
Longitude
1.29617°
Altitude
838.876 km
Speed
7.428 km/s
True Right ascension
11h 53m 23s
True Declination
0° 00' 00"
Sunlit
Object was in daylight at epoch
Visualization orbit readout
Latitude
Unknown
Longitude
Unknown
Altitude
Unknown
Speed
Unknown
Apparent Right ascension
Unknown
Apparent Declination
Unknown
Sunlit
N/A
Visualization observer readout
Local Sidereal Time
12:14:06
Azimuth
Unknown
Elevation
Unknown
Doppler factor
Unknown
Orbital elements
Apogee altitude
841.322 km
Perigee altitude
804.013 km
Semi-major axis
7,200.804 km
Eccentricity
0.00259
Inclination
98.5544°
RAAN
178.347°
Arg. of periapsis
235.9837°
True anomaly
124.13389°
Mean anomaly
123.8879°
Eccentric anomaly
124.01094°
Mean motion
3.55199 °/min
Orbital period
101.35 mins
BSTAR
0.00054073
Loading maneuver chart data...
Computing Atmospheric mass density...

Documentation

Showing up to 5 results
|